Home > Weather > Papeete > Past weeks

Flag for French Polynesia Past Weather in Papeete, Tahiti, French Polynesia — Yesterday and Last 2 Weeks

Now
81 °F

Passing clouds.


Feels Like: 82 °F
Forecast: 70 / 82 °F
Wind: 5 mph from North

Location: Tahiti-Faaa

Current Time: Jul 1, 2016 at 10:47:02 AM

Latest Report: Jul 1, 2016 at 10:00 AM


Visibility: N/A

Pressure: 30.01 "Hg

Humidity: 54%

Dew Point: 63 °F

Location of PapeeteLocation

Past Weather in Papeete — Graph

°F

Papeete Temperature Yesterday

Maximum temperature yesterday: 82 °F (at 12:00 PM)
Minimum temperature yesterday: 68 °F (at 3:30 AM)
Average temperature yesterday: 75 °F

High & Low Weather Summary for the Past Weeks

 TemperatureHumidityPressure
High86 °F (Jun 17, 12:30 PM)94% (Jun 20, 9:30 AM)30.04 "Hg (Jun 20, 9:30 AM)
Low68 °F (Jun 29, 6:30 AM)42% (Jun 30, 10:30 AM)29.80 "Hg (Jun 20, 2:30 PM)
Average78 °F75%29.94 "Hg
* Reported Jun 16 10:00 AM — Jul 1 10:00 AM, Papeete, Weather by CustomWeather, © 2016

Note: Actual official high and low records may vary slightly from our data, if they occured in-between our weather recording intervals... More about our weather records

Advertising

Papeete Weather History for the Previous 24 Hours

Scroll right to see more
 ConditionsComfort  
Time TempWeatherWind HumidityBarometerVisibility
10:00 AM
Fri, Jul 1
81 °FPassing clouds.5 mph54%30.01 "HgN/A
9:30 AM81 °FPassing clouds.2 mph58%30.01 "HgN/A
9:00 AM79 °FPassing clouds.2 mph61%30.01 "HgN/A
8:30 AM77 °FPassing clouds.3 mph61%30.01 "HgN/A
8:00 AM75 °FPassing clouds.2 mph69%30.01 "HgN/A
7:30 AM72 °FPassing clouds.5 mph78%30.01 "HgN/A
7:00 AM70 °FPassing clouds.2 mph78%29.98 "HgN/A
6:30 AM70 °FPassing clouds.3 mph73%29.98 "HgN/A
6:00 AM70 °FPassing clouds.6 mph73%29.95 "HgN/A
5:30 AM68 °FMild.6 mph73%29.95 "HgN/A
5:00 AM70 °FPassing clouds.6 mph73%29.95 "HgN/A
4:30 AM70 °FPassing clouds.3 mph78%29.95 "HgN/A
4:00 AM70 °FPassing clouds.2 mph83%29.95 "HgN/A
3:30 AM70 °FMild.2 mph83%29.95 "HgN/A
3:00 AM70 °FPassing clouds.5 mph88%29.95 "HgN/A
2:30 AM72 °FPassing clouds.3 mph83%29.95 "HgN/A
2:00 AM70 °FPassing clouds.6 mph83%29.95 "HgN/A
1:30 AM70 °FPassing clouds.6 mph83%29.95 "HgN/A
1:00 AM70 °FPassing clouds.5 mph83%29.98 "HgN/A
12:30 AM72 °FPassing clouds.5 mph78%29.98 "HgN/A
12:00 AM72 °FPassing clouds.3 mph78%29.98 "HgN/A
11:30 PM
Thu, Jun 30
72 °FPassing clouds.1 mph78%29.98 "HgN/A
11:00 PM72 °FPassing clouds.3 mph78%29.98 "HgN/A
10:30 PM73 °FPassing clouds.3 mph74%29.98 "HgN/A
10:00 PM73 °FPassing clouds.1 mph74%29.98 "HgN/A
9:30 PM73 °FPassing clouds.3 mph74%30.01 "HgN/A
9:00 PM75 °FPassing clouds.2 mph69%30.01 "HgN/A
8:30 PM75 °FPassing clouds.2 mph69%30.01 "HgN/A
8:00 PM73 °FPassing clouds.2 mph74%30.01 "HgN/A
7:30 PM75 °FPassing clouds.2 mph69%29.98 "HgN/A
7:00 PM75 °FPassing clouds.2 mph69%29.98 "HgN/A
6:30 PM77 °FPassing clouds.3 mph61%29.98 "HgN/A
6:00 PM77 °FPassing clouds.5 mph61%29.95 "HgN/A
5:30 PM79 °FScattered clouds.2 mph58%29.95 "HgN/A
5:00 PM81 °FScattered clouds.No wind51%29.95 "HgN/A
4:30 PM81 °FPartly sunny.3 mph54%29.95 "HgN/A
4:00 PM79 °FPartly sunny.5 mph54%29.95 "HgN/A
3:30 PM81 °FPartly sunny.3 mph48%29.92 "HgN/A
3:00 PM81 °FPartly sunny.3 mph51%29.92 "HgN/A
2:30 PM82 °FPartly sunny.5 mph48%29.95 "HgN/A
2:00 PM82 °FScattered clouds.6 mph48%29.95 "HgN/A
1:30 PM81 °FScattered clouds.6 mph54%29.95 "HgN/A
1:00 PM81 °FScattered clouds.5 mph48%29.95 "HgN/A
12:30 PM82 °FScattered clouds.6 mph48%29.98 "HgN/A
12:00 PM82 °FPassing clouds.7 mph42%29.98 "HgN/A
11:34 AM81 °FPassing clouds.7 mph48%29.98 "HgN/A
11:00 AM81 °FPassing clouds.7 mph48%30.01 "HgN/A
10:30 AM81 °FPassing clouds.6 mph42%30.01 "HgN/A
10:00 AM81 °FPassing clouds.3 mph45%30.01 "HgN/A
Weather by CustomWeather, © 2016

See weather overviewHow to use our weather pages